Temp
61 61 61 61 61 60 60 61 61 60 60 60 60 60 60 60 60 61 61 61 60 60 61 61 63 63 56 52 59 82 82 79 79 79 76 74 69 67 65 69 73 71 75 81 83 83 82
61 61 61 61 60 60 60 60 60 60 60 60 60 60 60 60 60 60 60 60 60 60 61 61 63 63 53 52 79 81 82 76 77 76 75 75 72 74 69 72 70 77 78 81 83 81 79
61 61 61 60 60 60 60 60 60 60 59 59 59 59 59 60 60 60 60 59 60 61 62 61 64 62 55 61 81 80 79 75 78 77 73 78 79 75 74 69 80 78 73 79 81 82 78
60 60 60 60 60 60 59 59 59 59 59 59 59 59 59 59 60 59 59 59 60 63 62 61 64 62 48 74 73 74 76 77 80 80 75 80 81 73 68 74 75 70 71 65 77 78 80
60 60 60 60 60 59 59 59 59 59 59 59 59 59 59 59 59 58 57 58 62 64 63 64 57 53 50 75 71 76 79 79 77 74 76 88 77 68 69 63 59 61 57 63 71 81 77
60 60 60 60 59 59 59 59 59 58 59 59 58 58 58 58 58 57 57 58 62 62 64 66 67 51 61 69 75 82 80 84 77 75 74 73 67 59 61 56 51 55 56 62 67 78 76
60 60 60 59 59 59 59 58 58 58 58 58 58 58 57 57 57 56 53 55 61 55 56 57 60 60 67 75 81 79 83 80 77 70 61 66 60 57 62 63 65 67 64 64 71 78 72
60 59 59 59 59 59 58 58 58 58 58 58 58 57 57 57 56 55 52 56 58 63 53 67 68 66 70 68 64 72 79 73 69 63 66 60 59 67 70 70 69 68 65 66 72 79 78
59 59 59 59 59 58 58 58 58 58 58 57 57 57 57 56 55 57 56 60 67 58 48 59 65 65 65 66 63 67 70 71 67 62 65 61 65 74 71 69 68 67 64 66 66 74 76
59 59 58 58 58 58 58 57 57 57 57 57 57 57 57 55 55 54 58 66 68 63 40 54 62 70 72 68 63 78 77 72 69 65 64 64 73 72 69 68 70 61 73 73 72 67 59
59 59 59 58 58 58 58 57 57 57 57 57 57 57 56 54 46 51 64 62 68 58 35 66 63 75 71 64 68 71 79 71 65 67 64 64 68 68 66 68 74 66 74 71 71 63 58
59 59 59 59 58 58 57 57 57 57 57 57 57 56 56 53 48 55 61 65 57 44 37 57 63 61 61 63 65 69 68 71 72 66 69 67 77 73 72 76 76 77 70 68 62 59 51
59 59 58 58 58 57 57 57 57 57 56 56 55 54 53 58 55 61 61 55 41 35 58 52 50 56 54 54 58 60 57 54 47 40 53 62 67 74 78 68 74 72 57 50 45 48 49
59 58 58 58 57 57 57 57 57 56 56 55 54 54 54 61 56 60 55 46 32 50 48 54 53 54 50 54 51 55 52 48 52 48 40 48 52 67 74 71 65 64 65 51 42 42 53
58 58 58 58 57 57 57 57 56 56 55 55 53 54 53 61 64 58 50 34 36 47 54 52 50 46 44 52 52 51 47 48 52 48 39 36 49 70 75 76 74 62 59 68 50 45 47
58 58 58 58 57 57 57 57 56 56 55 54 49 45 52 69 70 55 44 38 44 56 56 53 42 47 40 43 45 43 44 53 52 54 54 43 35 57 69 75 76 71 68 55 49 48 43
58 58 58 57 57 57 57 57 56 55 55 53 43 43 57 70 60 48 36 38 50 58 57 50 45 42 41 40 41 41 44 53 54 52 54 44 39 47 58 61 63 66 64 57 59 51 50
58 58 57 57 57 57 57 57 56 55 53 50 40 38 57 65 43 40 37 43 50 52 55 50 50 46 41 41 38 39 41 47 55 53 45 50 43 35 47 63 70 69 63 63 57 49 48
58 58 58 57 57 57 57 57 55 54 53 48 38 39 56 54 33 34 41 45 51 49 47 49 48 49 43 38 35 41 45 54 55 50 46 46 41 34 44 53 63 60 63 59 55 55 50
58 58 58 57 57 57 57 56 55 54 54 45 38 36 42 43 41 34 36 40 42 52 48 48 46 48 42 37 37 37 43 51 54 53 54 48 39 37 32 40 48 49 55 65 60 54 54
58 58 57 57 57 57 57 56 55 54 54 45 39 35 37 31 36 36 38 40 41 41 46 48 45 45 40 32 36 36 41 44 52 54 47 43 34 38 42 48 52 53 55 62 62 64 60
57 57 57 57 57 57 57 57 56 55 54 43 37 39 38 40 41 39 37 36 40 43 43 41 41 44 41 33 37 34 39 37 39 46 42 41 35 37 36 50 54 54 62 66 67 69 63
57 57 57 57 57 57 57 57 56 55 52 42 43 44 42 39 38 36 34 39 40 44 45 48 45 42 39 42 46 46 48 47 45 42 38 35 35 32 33 51 54 51 56 62 65 71 66
57 57 57 57 57 57 57 57 56 56 54 49 45 45 39 35 37 37 38 39 39 41 38 45 44 40 46 50 48 46 43 45 49 47 44 37 35 32 33 47 42 55 61 62 59 60 61
57 57 57 57 57 57 57 57 57 56 55 50 49 44 40 34 38 39 39 40 41 41 40 46 47 47 48 45 35 32 35 40 47 50 44 46 38 32 32 42 53 53 55 55 52 53 61
57 56 56 56 56 57 57 57 57 57 56 52 50 48 42 37 37 42 39 39 37 38 41 43 49 49 46 36 33 29 27 33 36 42 51 47 41 34 38 39 39 42 53 63 63 46 62
56 56 56 56 57 57 57 57 58 57 56 52 50 49 44 38 42 42 38 38 43 41 38 39 41 40 44 36 34 32 31 37 33 34 36 37 36 33 39 41 44 49 53 62 45 47 61
55 55 56 56 56 56 57 57 57 57 57 53 50 50 45 40 43 46 47 42 43 42 37 39 36 39 38 34 34 33 33 35 34 36 34 34 35 33 34 35 34 50 51 43 49 56 57
55 55 55 56 56 56 56 57 57 57 57 55 48 51 50 44 44 49 50 51 48 49 44 43 40 38 37 33 34 36 33 37 37 31 43 33 36 34 34 37 45 50 48 51 56 54 55
MSLP
1025.02 1024.68 1024.26 1023.84 1023.41 1022.99 1022.52 1021.97 1021.38 1020.79 1020.17 1019.53 1018.85 1018.09 1017.35 1016.51 1015.67 1014.95 1014.43 1013.97 1013.49 1012.88 1012.51 1012.36 1012.20 1012.11 1012.31 1011.40 1007.07 1003.22 1003.24 1003.78 1005.48 1006.15 1006.54 1007.02 1007.79 1008.25 1008.06 1007.42 1007.44 1006.83 1005.63 1005.27 1004.65 1004.71 1004.81
1025.25 1024.85 1024.43 1024.01 1023.60 1023.16 1022.68 1022.11 1021.50 1020.91 1020.29 1019.59 1018.82 1017.99 1017.15 1016.30 1015.39 1014.57 1013.83 1013.20 1012.60 1012.21 1011.86 1011.80 1011.77 1011.94 1012.03 1009.59 1003.79 1003.31 1003.68 1004.28 1004.44 1005.62 1006.25 1006.60 1006.60 1006.97 1007.23 1006.80 1006.70 1005.19 1005.43 1004.95 1004.58 1003.98 1004.83
1025.55 1025.13 1024.70 1024.27 1023.83 1023.32 1022.79 1022.21 1021.59 1020.94 1020.23 1019.43 1018.57 1017.73 1016.85 1016.03 1015.05 1014.23 1013.25 1012.45 1011.70 1010.95 1010.69 1011.07 1011.18 1011.52 1011.13 1006.06 1003.26 1003.29 1003.69 1003.82 1003.91 1004.35 1005.34 1005.55 1005.76 1006.41 1006.27 1006.48 1005.45 1005.23 1005.32 1004.75 1004.27 1003.85 1005.13
1025.81 1025.37 1024.91 1024.44 1023.95 1023.45 1022.88 1022.27 1021.61 1020.85 1020.09 1019.29 1018.44 1017.55 1016.63 1015.63 1014.71 1013.85 1012.81 1011.51 1011.06 1010.15 1009.95 1010.45 1010.57 1010.95 1009.15 1004.24 1003.77 1003.72 1003.59 1003.73 1003.97 1003.98 1004.11 1004.64 1005.49 1006.17 1006.16 1005.75 1005.24 1005.27 1004.96 1004.49 1003.57 1004.37 1005.15
1025.98 1025.52 1025.06 1024.54 1024.02 1023.48 1022.91 1022.25 1021.56 1020.85 1020.08 1019.29 1018.51 1017.62 1016.71 1015.50 1014.44 1013.73 1012.46 1010.96 1010.33 1009.97 1010.14 1010.44 1010.55 1010.39 1006.80 1003.66 1003.56 1002.46 1002.94 1003.07 1003.76 1004.25 1004.49 1004.68 1005.64 1005.97 1005.99 1006.15 1006.13 1005.23 1004.87 1004.11 1003.16 1003.30 1004.44
1026.20 1025.70 1025.18 1024.67 1024.13 1023.55 1022.95 1022.35 1021.67 1020.93 1020.11 1019.21 1018.26 1017.38 1016.35 1015.37 1014.26 1013.62 1012.17 1010.41 1009.58 1009.96 1010.24 1010.33 1009.91 1010.02 1005.58 1003.91 1003.16 1002.23 1002.14 1002.55 1003.60 1004.23 1005.13 1005.24 1005.53 1005.64 1005.70 1005.87 1005.41 1005.23 1004.70 1003.75 1002.94 1002.14 1003.75
1026.41 1025.92 1025.33 1024.76 1024.16 1023.55 1022.91 1022.26 1021.60 1020.89 1020.06 1019.15 1018.18 1017.19 1016.24 1014.89 1013.86 1013.12 1012.30 1010.85 1010.35 1010.11 1009.73 1009.52 1008.40 1007.79 1005.18 1004.56 1003.21 1001.85 1001.42 1002.21 1003.03 1003.85 1004.53 1004.57 1005.17 1004.21 1004.25 1004.97 1004.92 1004.60 1004.09 1003.44 1002.31 1002.52 1003.52
1026.57 1026.08 1025.50 1024.91 1024.30 1023.67 1022.98 1022.25 1021.48 1020.74 1019.94 1019.09 1018.25 1017.23 1016.41 1014.81 1013.64 1012.91 1012.71 1012.35 1011.77 1011.50 1008.94 1006.88 1006.15 1005.74 1005.02 1005.14 1004.74 1002.34 1001.77 1002.06 1002.77 1003.22 1003.73 1004.21 1003.03 1003.49 1003.96 1004.06 1004.22 1003.92 1003.46 1002.52 1001.92 1001.85 1002.54
1026.77 1026.28 1025.70 1025.04 1024.41 1023.73 1022.96 1022.16 1021.38 1020.59 1019.87 1019.08 1018.11 1017.16 1016.04 1014.95 1013.39 1012.53 1012.56 1011.57 1010.68 1010.74 1010.45 1006.84 1005.32 1004.75 1004.09 1004.36 1004.52 1003.02 1002.81 1002.40 1002.32 1003.08 1003.07 1002.74 1002.03 1002.61 1002.89 1002.97 1002.93 1002.61 1002.45 1002.11 1001.95 1001.93 1002.38
1026.91 1026.43 1025.87 1025.23 1024.53 1023.80 1023.10 1022.34 1021.57 1020.67 1019.52 1018.47 1017.58 1016.75 1015.88 1014.87 1013.22 1013.54 1012.23 1010.63 1010.21 1010.40 1010.40 1006.92 1005.11 1004.07 1003.78 1003.82 1003.70 1002.56 1002.23 1002.37 1001.97 1001.93 1002.56 1002.13 1001.67 1001.81 1001.82 1001.57 1001.81 1001.75 1001.51 1001.89 1001.90 1002.55 1003.01
1026.90 1026.47 1025.85 1025.23 1024.55 1023.95 1023.23 1022.40 1021.43 1020.44 1019.21 1018.03 1017.19 1016.20 1015.38 1014.93 1014.68 1013.78 1011.47 1010.58 1010.12 1010.25 1009.36 1006.18 1005.68 1004.68 1004.54 1004.91 1004.61 1003.08 1002.63 1002.11 1001.89 1001.97 1001.87 1000.70 1000.73 1000.75 1000.76 1000.15 1000.85 1000.80 1001.52 1001.76 1002.13 1002.83 1003.31
1026.83 1026.37 1025.87 1025.30 1024.68 1024.01 1023.26 1022.35 1021.45 1020.41 1019.15 1017.87 1017.02 1015.69 1015.25 1014.57 1014.46 1012.05 1011.19 1010.49 1010.14 1010.89 1008.80 1007.22 1007.11 1006.19 1005.49 1005.46 1005.10 1004.48 1003.93 1003.23 1002.10 1002.37 1001.74 1000.93 1000.44 1000.03 999.75 1000.07 1000.48 1000.81 1001.45 1001.78 1002.37 1002.95 1003.03
1026.76 1026.33 1025.89 1025.37 1024.78 1024.12 1023.37 1022.46 1021.42 1020.43 1019.26 1017.71 1016.54 1015.43 1014.53 1014.22 1012.95 1011.31 1011.45 1011.10 1011.59 1010.75 1008.51 1008.75 1008.63 1007.91 1007.43 1007.41 1006.89 1006.77 1006.44 1006.62 1007.52 1006.18 1003.11 1001.91 1000.19 999.71 999.31 999.65 999.94 1000.50 1001.36 1002.49 1002.94 1003.17 1002.64
1026.90 1026.34 1025.89 1025.34 1024.79 1024.19 1023.46 1022.57 1021.51 1020.58 1019.41 1017.62 1016.28 1014.75 1013.89 1013.14 1011.99 1011.89 1012.53 1012.54 1012.40 1010.94 1010.30 1009.90 1009.60 1009.05 1009.07 1008.79 1008.43 1008.35 1008.23 1008.52 1009.09 1009.16 1007.47 1004.53 1001.47 999.66 998.57 998.32 998.86 999.33 1000.32 1001.38 1002.49 1002.79 1002.36
1026.89 1026.37 1025.81 1025.28 1024.70 1024.19 1023.54 1022.79 1021.60 1020.61 1019.42 1018.14 1016.43 1014.63 1014.05 1012.71 1012.01 1012.33 1013.47 1013.86 1012.88 1011.59 1010.86 1010.38 1009.85 1009.95 1010.33 1010.27 1010.20 1009.80 1010.09 1009.98 1010.45 1010.73 1011.10 1008.73 1003.19 999.67 998.54 998.13 998.23 998.57 998.82 1000.09 1001.71 1002.27 1001.97
1026.85 1026.33 1025.72 1025.13 1024.70 1024.12 1023.53 1022.86 1022.01 1020.82 1019.85 1018.54 1017.74 1016.30 1014.30 1012.42 1011.52 1012.39 1013.97 1014.36 1013.31 1011.95 1011.18 1010.99 1011.19 1011.17 1011.65 1011.55 1011.35 1011.08 1011.05 1010.87 1011.07 1011.52 1011.79 1011.04 1008.18 1001.79 999.30 998.26 997.53 997.03 998.63 999.82 1000.65 1001.57 1001.74
1026.72 1026.29 1025.73 1025.12 1024.61 1024.08 1023.53 1022.87 1022.25 1021.28 1020.29 1018.78 1018.26 1016.91 1013.52 1012.49 1011.73 1013.26 1014.99 1015.05 1013.74 1012.55 1011.85 1011.61 1011.71 1012.01 1012.75 1012.93 1012.63 1012.37 1011.75 1011.44 1011.51 1011.72 1012.17 1012.08 1010.56 1004.73 1001.83 998.35 997.13 997.43 997.59 998.31 999.44 1000.40 1000.84
1026.48 1026.03 1025.49 1025.09 1024.55 1024.01 1023.59 1022.93 1022.25 1021.53 1020.63 1019.44 1019.53 1017.76 1014.13 1012.98 1014.46 1015.81 1016.55 1016.27 1015.01 1013.56 1012.88 1012.69 1012.43 1012.77 1013.44 1013.55 1013.43 1013.15 1012.63 1012.15 1012.21 1012.39 1012.47 1012.88 1011.77 1008.60 1003.15 999.62 997.95 997.31 997.51 998.29 998.93 999.95 999.88
1026.21 1025.71 1025.22 1024.77 1024.37 1023.92 1023.47 1022.85 1022.33 1021.61 1021.29 1021.17 1020.64 1018.49 1015.30 1014.81 1017.14 1017.91 1017.55 1016.89 1015.80 1014.61 1014.46 1013.82 1013.53 1013.53 1013.88 1014.01 1014.15 1013.61 1013.01 1012.52 1012.42 1012.91 1013.05 1013.81 1012.51 1010.33 1004.35 1000.69 998.79 997.99 997.40 997.43 997.75 997.95 998.48
1025.90 1025.40 1024.93 1024.46 1024.11 1023.64 1023.25 1022.69 1022.27 1021.73 1021.23 1021.20 1021.14 1020.01 1018.32 1018.11 1018.97 1019.42 1018.84 1017.35 1016.46 1015.69 1015.48 1015.49 1015.39 1014.63 1014.64 1014.64 1014.45 1014.05 1013.37 1012.57 1012.94 1013.49 1013.53 1014.11 1013.88 1012.22 1008.78 1005.15 1003.75 1000.82 998.60 997.14 997.04 997.17 997.39
1025.51 1025.07 1024.55 1024.09 1023.67 1023.36 1023.00 1022.54 1022.05 1021.61 1021.26 1021.48 1021.42 1021.38 1021.01 1020.58 1020.02 1019.95 1019.36 1018.08 1017.08 1016.47 1016.30 1016.26 1015.20 1015.12 1015.07 1015.27 1015.04 1014.55 1013.97 1013.34 1013.30 1013.55 1014.44 1014.76 1014.24 1012.61 1009.64 1006.64 1003.79 1000.94 999.09 997.22 995.99 995.76 995.92
1025.21 1024.67 1024.13 1023.66 1023.25 1022.89 1022.62 1022.27 1021.89 1021.45 1021.23 1021.49 1021.76 1021.70 1021.59 1021.25 1020.83 1020.22 1019.31 1018.48 1017.67 1017.00 1016.78 1016.08 1015.82 1015.55 1015.58 1015.64 1015.17 1014.60 1013.88 1013.63 1013.72 1014.00 1014.86 1015.45 1014.38 1012.71 1008.59 1004.21 1002.11 1000.21 998.04 996.28 995.41 995.08 995.06
1024.76 1024.28 1023.73 1023.19 1022.78 1022.40 1022.14 1021.87 1021.54 1021.32 1021.41 1021.51 1021.36 1021.53 1021.57 1021.27 1020.99 1020.68 1019.88 1019.16 1018.40 1017.66 1016.52 1016.07 1015.88 1015.59 1015.18 1014.67 1014.57 1013.85 1013.21 1012.76 1013.03 1013.44 1014.48 1015.22 1014.38 1013.18 1008.32 1003.63 1001.41 1000.04 998.89 996.85 995.08 995.05 995.53
1024.29 1023.82 1023.28 1022.69 1022.27 1021.93 1021.64 1021.37 1021.15 1021.02 1021.15 1021.32 1021.29 1021.36 1021.59 1021.23 1021.03 1020.67 1019.95 1019.43 1018.51 1017.96 1017.38 1016.12 1015.75 1015.19 1014.40 1013.68 1013.55 1012.65 1012.24 1011.66 1011.45 1012.01 1012.78 1013.95 1014.11 1013.13 1008.14 1004.19 1001.67 1000.98 999.74 998.65 997.84 998.06 997.57
1023.69 1023.27 1022.76 1022.21 1021.81 1021.42 1021.04 1020.81 1020.66 1020.45 1020.46 1020.76 1020.81 1021.09 1021.28 1021.13 1020.76 1020.16 1019.61 1019.02 1018.48 1017.79 1016.88 1015.81 1015.43 1014.75 1014.10 1014.05 1013.62 1012.73 1011.56 1010.69 1009.90 1010.45 1011.80 1012.51 1013.15 1011.88 1008.36 1004.82 1001.48 1000.50 1000.99 1001.10 1000.39 1000.79 1000.43
1023.18 1022.68 1022.21 1021.74 1021.28 1020.87 1020.56 1020.35 1020.03 1019.78 1019.82 1020.02 1020.15 1020.46 1020.96 1021.07 1020.31 1019.75 1019.35 1018.96 1018.29 1017.58 1016.84 1015.96 1014.95 1014.14 1014.18 1014.32 1014.03 1013.23 1012.17 1011.12 1010.08 1009.97 1010.35 1011.60 1011.92 1012.22 1008.74 1006.31 1004.29 1005.58 1003.57 1000.79 999.89 1001.89 1002.12
1022.66 1022.15 1021.68 1021.23 1020.77 1020.38 1020.15 1019.81 1019.50 1019.30 1019.28 1019.53 1019.63 1019.96 1020.49 1020.61 1019.76 1019.51 1019.03 1018.69 1018.16 1017.68 1017.24 1016.63 1015.99 1015.11 1014.89 1014.85 1014.56 1013.69 1012.56 1011.37 1010.57 1010.60 1011.19 1011.80 1012.10 1011.25 1009.41 1007.55 1006.15 1006.57 1004.18 1001.59 1003.12 1006.75 1004.79
1022.20 1021.67 1021.22 1020.78 1020.34 1019.99 1019.71 1019.37 1019.17 1018.99 1018.90 1019.14 1019.25 1019.45 1019.84 1020.02 1019.33 1018.93 1018.63 1018.29 1017.73 1017.56 1017.19 1016.67 1016.31 1016.18 1015.71 1015.65 1015.45 1014.98 1013.81 1012.92 1012.33 1012.62 1012.29 1012.23 1011.97 1011.34 1010.51 1008.77 1008.65 1008.09 1006.56 1007.23 1008.28 1007.27 1006.54
1021.77 1021.25 1020.78 1020.37 1019.96 1019.56 1019.27 1018.99 1018.73 1018.57 1018.55 1018.71 1019.09 1019.17 1019.53 1019.79 1019.28 1018.61 1017.91 1017.32 1017.37 1017.10 1017.24 1016.91 1016.97 1016.87 1016.73 1016.71 1016.35 1015.67 1014.87 1013.97 1013.24 1012.92 1012.81 1012.86 1013.33 1012.68 1012.77 1011.13 1010.56 1010.11 1009.92 1009.13 1008.96 1007.86 1007.51
Wind_Speed
18 19 20 20 21 21 22 23 23 23 24 25 26 26 26 26 27 26 24 22 21 20 18 14 9 2 1 1 15 8 3 19 18 16 16 13 9 7 9 8 13 12 17 10 10 5 4
19 20 20 20 21 22 22 22 23 23 24 24 24 25 25 26 27 27 25 23 21 20 19 14 8 7 2 5 6 12 1 18 20 17 14 10 11 12 4 11 9 5 16 12 5 7 2
19 19 20 20 21 21 22 22 23 24 24 24 24 24 25 26 27 27 27 26 24 23 16 9 9 6 5 20 3 5 5 9 16 20 13 16 13 9 9 4 22 17 15 10 12 10 3
18 19 20 20 21 21 21 22 24 24 24 25 26 26 27 28 29 29 28 29 23 21 3 7 8 6 12 8 8 12 5 4 11 15 3 11 9 3 3 7 7 6 11 13 16 11 10
19 19 20 20 21 21 21 22 23 23 24 25 25 27 27 29 29 28 28 30 24 4 6 7 7 5 13 11 2 9 6 8 11 6 7 8 6 6 2 3 5 2 7 8 14 20 15
19 19 19 20 21 21 21 21 22 23 24 25 26 27 28 29 29 26 30 26 14 6 4 8 3 4 7 4 7 16 10 11 7 11 3 8 5 5 6 5 10 5 4 6 11 5 18
18 19 19 21 22 22 22 23 23 24 25 27 28 28 29 31 31 29 16 7 10 7 2 9 18 12 29 14 9 8 6 10 5 6 8 9 9 17 18 10 8 6 7 10 8 16 25
18 19 20 21 21 21 22 23 24 25 26 27 27 28 26 33 33 28 1 5 5 8 17 12 16 20 26 2 10 14 7 8 8 11 7 4 21 12 8 10 14 13 14 16 14 10 10
18 19 19 19 20 21 22 24 26 27 26 25 26 25 27 28 32 6 3 6 8 4 2 12 5 4 7 6 7 11 0 5 6 7 12 18 8 17 13 17 17 16 16 14 13 5 8
18 17 17 19 20 21 23 24 24 25 27 28 28 27 27 29 6 6 7 8 11 1 5 9 5 6 10 5 3 9 8 9 6 15 8 15 17 13 20 17 18 17 15 15 16 5 4
17 18 19 19 21 22 23 24 25 26 29 31 31 31 28 16 4 4 9 9 14 5 4 5 8 3 9 9 9 20 16 5 12 12 9 18 18 20 19 27 17 15 10 12 13 5 4
18 18 19 21 21 22 23 24 25 27 31 33 32 32 30 2 1 10 8 14 5 7 4 7 7 12 15 15 9 16 14 15 6 12 16 13 14 18 23 13 18 11 9 11 3 4 8
18 19 20 20 21 21 22 24 26 28 31 34 34 34 20 3 5 6 7 6 7 3 9 7 7 9 6 14 8 16 14 17 15 12 9 6 23 16 17 17 17 15 6 6 4 6 9
18 18 18 19 20 20 21 23 25 26 30 35 37 31 5 6 6 3 5 7 3 7 4 2 4 3 6 16 4 14 8 6 17 8 6 7 17 19 12 20 14 13 17 10 13 5 10
17 17 18 19 19 20 21 21 24 26 30 33 31 7 5 6 7 3 6 5 4 5 6 8 6 4 5 8 6 9 8 4 10 17 9 9 9 5 19 18 21 9 17 14 4 3 2
17 18 18 19 20 20 20 21 22 25 28 32 10 5 5 13 12 5 6 5 4 5 6 6 5 3 5 6 7 10 4 9 5 14 12 3 11 16 19 10 20 24 8 6 3 16 10
17 17 18 19 20 20 21 20 20 22 25 27 4 5 5 17 4 6 2 3 6 14 16 4 3 2 5 4 4 6 4 8 17 13 12 3 4 16 12 12 14 15 16 5 6 6 10
17 17 18 18 19 20 20 20 19 20 22 6 4 4 6 11 7 3 3 7 11 14 15 6 4 5 4 3 3 3 3 4 13 13 9 8 6 8 14 10 5 7 10 13 9 11 3
17 18 18 18 19 19 19 19 17 17 13 5 5 4 5 7 5 4 6 7 7 14 11 11 7 5 3 2 1 3 3 4 7 8 5 6 3 9 13 3 3 5 5 7 5 6 10
18 19 19 18 18 18 17 17 15 14 14 3 3 5 6 5 3 2 5 4 10 9 6 12 14 2 2 4 2 3 4 5 3 4 7 6 3 10 11 17 17 12 18 9 9 8 7
19 20 19 19 19 18 17 15 14 12 12 3 1 1 1 6 5 10 8 5 8 7 4 4 7 10 3 2 5 4 3 4 9 5 3 4 7 13 20 24 24 24 22 20 14 14 13
19 19 19 19 18 18 17 14 12 12 10 2 0 3 4 3 6 8 4 3 9 11 8 10 6 12 4 6 9 6 6 5 7 6 4 3 6 14 23 21 18 19 18 13 11 16 8
20 20 20 19 18 17 16 14 12 10 4 1 1 2 1 3 3 4 3 9 17 16 8 5 9 12 12 11 8 12 15 14 8 7 5 4 2 8 9 7 10 2 15 10 4 11 7
20 20 20 20 20 18 16 14 11 9 3 2 3 2 2 4 3 3 8 14 15 14 11 13 6 1 6 13 14 11 10 16 18 15 14 6 3 4 9 9 7 10 19 12 18 21 21
20 21 21 21 18 17 16 14 12 9 7 3 2 3 3 3 5 7 8 7 11 11 5 8 5 6 8 9 4 6 5 6 14 16 14 14 7 6 4 4 3 18 22 16 6 14 21
20 20 20 19 17 16 15 14 12 10 9 3 3 3 2 0 4 6 4 8 5 4 5 5 9 9 4 1 2 3 3 4 4 2 12 11 7 6 9 4 3 10 25 24 6 17 19
20 20 19 18 17 16 14 13 12 11 8 3 1 4 3 2 3 3 4 3 4 4 3 5 8 8 5 4 3 3 2 7 4 6 4 5 4 8 9 6 4 21 25 17 12 10 18
19 18 17 17 16 15 14 13 11 10 7 2 1 6 4 2 4 5 4 4 4 3 3 4 5 5 4 6 3 4 4 5 3 3 2 2 3 2 4 3 3 23 12 9 4 11 15
20 17 17 16 15 15 14 13 11 7 4 4 1 2 2 1 4 2 10 14 12 11 3 3 2 3 2 3 3 3 2 3 1 3 4 6 3 2 4 4 3 9 4 9 9 11 14
Wind_Direction
22 19 16 12 9 6 3 0 357 353 350 347 343 339 336 332 329 328 327 323 316 307 300 299 296 306 271 233 251 274 15 168 166 166 181 176 174 169 196 195 236 234 247 232 247 292 238
20 16 13 10 7 5 3 359 356 352 348 345 340 337 334 331 328 328 326 323 314 307 299 288 266 137 189 244 243 232 144 140 167 173 189 183 192 199 232 239 202 225 227 247 156 321 46
17 14 11 9 6 3 1 357 353 350 347 342 338 336 334 332 328 329 326 322 317 309 289 260 232 167 229 239 234 22 137 177 171 177 172 203 214 177 192 252 240 247 265 244 207 172 119
16 11 9 7 4 1 357 355 352 347 344 341 338 336 334 332 331 331 327 320 323 319 55 195 200 180 247 256 255 269 215 194 184 190 144 176 198 206 187 302 328 225 233 250 219 176 126
13 10 7 4 0 357 354 352 349 345 341 338 336 334 334 330 329 332 324 315 320 61 93 150 134 167 263 296 191 244 195 184 171 185 224 176 141 206 290 206 335 231 244 240 251 200 145
11 8 4 1 358 354 352 349 346 342 340 339 337 336 333 331 329 332 321 308 294 116 138 189 227 295 270 359 324 306 190 188 176 169 154 204 187 171 211 145 211 196 229 222 233 215 153
7 4 2 360 356 352 350 347 344 342 341 340 337 335 334 330 328 328 335 353 11 341 157 229 255 261 287 319 311 312 261 152 185 149 176 190 192 210 217 200 241 255 225 231 256 156 159
3 0 359 356 351 349 347 345 343 341 341 337 334 332 334 324 324 323 315 32 302 250 309 302 257 242 254 282 296 306 350 167 157 208 172 184 221 211 216 226 222 231 254 252 272 275 195
0 357 354 350 348 348 347 345 343 340 335 331 330 331 331 325 319 335 291 243 301 22 292 300 256 217 244 158 219 283 61 313 186 193 211 216 239 205 210 228 221 230 232 247 240 302 31
358 352 350 348 348 348 346 342 338 335 333 334 333 332 333 334 25 326 303 274 315 181 41 280 15 4 356 177 238 247 215 177 246 213 208 231 241 219 214 230 210 230 231 251 257 262 211
355 350 348 348 349 346 342 339 339 339 336 333 334 331 334 331 251 312 255 320 311 65 351 58 7 6 313 52 288 358 347 290 220 241 168 225 198 226 221 225 212 235 233 246 250 227 211
352 350 349 348 345 343 342 341 340 341 337 332 333 327 336 42 227 239 311 306 52 43 254 13 36 339 23 15 1 355 13 12 285 229 244 233 232 221 227 235 227 225 230 256 261 189 240
350 347 345 343 342 343 341 340 342 342 336 329 329 325 327 255 246 313 351 9 45 140 348 12 348 351 56 354 9 14 1 43 39 354 259 257 239 245 223 213 235 212 145 242 296 238 229
346 343 342 339 339 340 340 340 339 340 336 329 331 320 251 228 257 347 33 40 89 317 19 22 328 26 56 10 346 6 17 29 45 53 277 288 244 222 237 212 199 210 202 194 213 195 228
339 339 340 334 336 337 339 339 338 341 335 332 328 334 324 283 274 97 59 16 231 5 339 338 359 39 17 20 331 14 7 44 48 54 22 331 289 341 212 236 203 216 209 201 168 198 146
334 335 335 332 333 335 337 340 341 339 334 332 325 329 288 336 339 81 81 231 270 346 359 354 26 331 5 7 26 9 359 26 45 39 28 300 294 274 268 235 237 212 164 191 219 226 244
330 329 328 329 332 334 337 339 340 337 335 328 2 355 269 346 23 55 96 310 322 346 16 314 309 3 45 18 33 345 317 338 22 2 7 324 252 299 312 218 225 212 210 226 163 154 215
325 323 324 328 329 331 334 336 338 337 336 8 356 357 311 345 51 17 49 323 310 5 2 344 40 63 99 46 354 315 328 335 5 7 355 26 292 287 259 311 230 255 190 197 202 226 212
321 319 323 326 326 328 331 330 333 333 355 338 322 271 324 33 52 354 317 323 332 4 344 360 331 37 32 30 345 334 344 4 15 6 23 40 329 315 315 89 209 230 212 191 142 137 201
317 317 320 321 323 324 328 326 328 328 338 55 350 349 329 31 79 20 329 289 336 338 320 2 291 14 40 3 172 282 307 340 322 317 313 74 247 266 275 298 305 293 315 245 187 186 176
315 316 317 319 322 323 325 325 323 322 332 78 3 320 197 329 347 324 315 293 322 333 357 25 290 29 37 341 320 288 292 315 291 117 45 125 264 272 268 274 273 264 265 271 209 203 190
314 314 316 317 319 320 322 321 316 319 341 77 28 2 356 268 274 312 308 310 326 340 324 309 315 320 296 213 207 237 230 162 231 129 112 300 256 310 287 263 238 243 249 240 250 206 144
314 314 316 317 319 320 322 320 316 317 68 322 306 16 132 262 281 306 296 332 318 317 299 318 310 305 287 271 297 240 249 253 214 159 119 222 287 335 265 304 286 187 350 11 291 182 154
315 316 316 318 323 323 319 312 305 297 225 212 223 126 162 277 238 244 280 298 298 318 292 299 354 286 253 293 308 273 252 242 238 186 147 195 225 221 266 301 165 120 28 37 64 34 17
317 317 319 324 325 320 314 311 309 294 261 204 181 159 172 258 249 273 277 298 305 300 275 302 308 242 284 288 290 323 295 284 243 180 173 195 193 265 260 284 249 22 5 347 15 38 11
320 321 325 325 323 319 317 314 307 289 263 225 198 143 146 250 240 248 291 298 293 314 329 284 321 316 342 277 321 241 269 263 154 136 211 181 192 257 313 300 27 2 337 329 133 39 11
325 328 325 325 323 322 322 314 307 301 280 216 208 148 121 212 258 211 233 272 271 278 274 291 331 333 354 11 329 293 288 303 25 52 99 171 244 259 292 256 90 354 352 359 59 19 358
328 325 328 324 324 324 320 312 308 304 298 175 228 177 154 200 269 219 243 258 269 251 287 303 7 7 340 18 358 328 313 344 25 41 17 118 219 348 309 2 66 351 9 57 283 344 359
329 328 326 327 326 324 320 316 314 308 295 166 197 150 140 172 272 301 274 259 255 258 286 311 225 344 339 13 347 301 261 277 319 47 46 61 339 337 337 275 51 341 341 269 305 346 354